Weather History for OAKB - March, 2014

Change the Weather History Date:

Tuesday, March 4, 2014

  Actual Average Record
Temperature  
Mean Temperature 40 °F -  
Max Temperature 48 °F 56 °F - ()
Min Temperature 32 °F 34 °F - ()
Degree Days  
Heating Degree Days 25    
Moisture  
Dew Point 31 °F    
Average Humidity 77    
Maximum Humidity 100    
Minimum Humidity 46    
Precipitation  
Precipitation 0.00 in 0.09 in - ()
Sea Level Pressure  
Sea Level Pressure 30.17 in    
Wind  
Wind Speed 4 mph ()    
Max Wind Speed 10 mph    
Max Gust Speed -    
Visibility 3.7 miles    
Events Rain    
T = Trace of Precipitation, MM = Missing Value Source: Averaged Metar Reports

Daily Weather History Graph

Daily Weather History Graph

Search for Another Location

Airport or City:

Trip Planner

Search our weather history database for the weather conditions in past years. The results will help you decide how hot, cold, wet, or windy it might be!

Date:

Astronomy

Mar. 04, 2014 Rise Set
Actual Time 6:18 AM AFT 5:51 PM AFT
Civil Twilight 5:53 AM AFT 6:16 PM AFT
Nautical Twilight 5:24 AM AFT 6:45 PM AFT
Astronomical Twilight 4:55 AM AFT 7:14 PM AFT
Moon 7:57 AM AFT (3/4) 9:20 PM AFT (3/4)
Length of Visible Light 12h 22m
Length of Day
11h 32m
Waxing Crescent, 12% of the Moon is Illuminated
Mar 4
Waxing Crescent
Mar 8
First Quarter
Mar 16
Full
Mar 24
Last Quarter
Mar 30
New

Hourly Weather History & Observations

Time (AFT) Temp. Windchill Dew Point Humidity Pressure Visibility Wind Dir Wind Speed Gust Speed Precip Events Conditions
12:20 AM 32.0 °F - 32.0 °F 100% 30.12 in 1.6 mi Variable 1.2 mph - N/A Rain Light Rain
1:20 AM 32.0 °F - 32.0 °F 100% 30.12 in 1.6 mi Variable 1.2 mph - N/A   Mostly Cloudy
2:20 AM 32.0 °F - 32.0 °F 100% 30.12 in 1.6 mi SE 2.3 mph - N/A   Mostly Cloudy
3:20 AM 32.0 °F 23.6 °F 32.0 °F 100% 30.12 in 1.2 mi East 10.4 mph - N/A   Mostly Cloudy
4:20 AM 32.0 °F 23.6 °F 32.0 °F 100% 30.12 in 1.6 mi East 10.4 mph - N/A   Mostly Cloudy
5:20 AM 33.8 °F - 33.8 °F 100% 30.15 in 1.9 mi ESE 2.3 mph - N/A   Mostly Cloudy
6:20 AM 33.8 °F 28.6 °F 32.0 °F 93% 30.15 in 1.6 mi East 5.8 mph - N/A   Mostly Cloudy
7:20 AM 33.8 °F 30.8 °F 32.0 °F 93% 30.18 in 1.5 mi SE 3.5 mph - N/A   Mostly Cloudy
8:20 AM 33.8 °F 27.7 °F 33.8 °F 100% 30.18 in 1.2 mi East 6.9 mph - N/A   Overcast
9:20 AM 37.4 °F 33.8 °F 32.0 °F 81% 30.18 in 1.9 mi Variable 4.6 mph - N/A   Mostly Cloudy
10:20 AM 42.8 °F 40.1 °F 30.2 °F 61% 30.21 in 3.7 mi Variable 4.6 mph - N/A   Mostly Cloudy
11:20 AM 41.0 °F 39.0 °F 28.4 °F 61% 30.21 in 6.2 mi Variable 3.5 mph - N/A   Mostly Cloudy
12:20 PM 46.4 °F 43.5 °F 28.4 °F 50% 30.18 in 6.2 mi Variable 5.8 mph - N/A   Mostly Cloudy
1:20 PM 48.2 °F - 30.2 °F 50% 30.18 in 6.2 mi Variable 5.8 mph - N/A   Mostly Cloudy
2:20 PM 46.4 °F 45.2 °F 26.6 °F 46% 30.15 in 6.2 mi Variable 3.5 mph - N/A   Mostly Cloudy
3:20 PM 42.8 °F 37.5 °F 32.0 °F 66% 30.15 in 5.6 mi NNW 9.2 mph - N/A   Mostly Cloudy
4:20 PM 42.8 °F 38.0 °F 30.2 °F 61% 30.15 in 5.6 mi North 8.1 mph - N/A   Scattered Clouds
5:20 PM 41.0 °F 34.7 °F 30.2 °F 65% 30.15 in 5.6 mi North 10.4 mph - N/A   Mostly Cloudy
6:20 PM 41.0 °F 35.2 °F 30.2 °F 65% 30.15 in 6.2 mi North 9.2 mph - N/A   Mostly Cloudy
7:20 PM 41.0 °F 37.1 °F 30.2 °F 65% 30.18 in 6.2 mi NNE 5.8 mph - N/A   Mostly Cloudy
8:20 PM 41.0 °F 38.0 °F 30.2 °F 65% 30.21 in 4.3 mi North 4.6 mph - N/A   Mostly Cloudy
9:20 PM 39.2 °F 35.0 °F 30.2 °F 70% 30.21 in 4.3 mi NNE 5.8 mph - N/A   Mostly Cloudy
10:20 PM 37.4 °F 33.8 °F 30.2 °F 75% 30.21 in 3.7 mi South 4.6 mph - N/A   Mostly Cloudy
11:20 PM 35.6 °F 32.8 °F 30.2 °F 81% 30.21 in 3.1 mi East 3.5 mph - N/A   Haze